Погода в Майрингене

Швейцария     46°43′38″N   8°11′14″E
темп.,
°C
ветер,
м/с
пор.,
м/с
влажн.,
%
обл.,
%
осадки,
мм/ч
давл.,
гПа
погр.,
м
14 апреля, ср
ср1423:00−10ююв329131 0.1 103318
02:00−12ююв328811 0.1 103322
05:00−12ююв32813 0.0 103119
08:00−9ююв21734 0.0 102951
11:00−4с217641 0.0 1026603
14:00−3ссв227998 0.1 1025938
17:00−3ссв228088 0.2 1024535
20:00−8вюв128756 0.3 102770
15 апреля, чт
чт1523:00−9ююв229179 0.1 102951
02:00−10ююв219272 0.2 102824
05:00−11ююв329265 0.0 102921
08:00−9юв218877 0.0 102797
11:00−4ссв227883 0.1 1024918
14:00−4с228981 0.6 1023793
17:00−3ссв238576 0.8 1022618
20:00−7в119594 1.1 102449
16 апреля, пт
пт1623:00−9ююв329092 0.0 102621
02:00−9ююв328594 0.1 102427
05:00−10ююв338442 0.0 102422
08:00−7ююв22835 0.0 102255
11:00−2св227832 0.0 1019639
14:00−1ссв228777 0.2 1018763
17:00−1ссв229483 0.6 1018620
20:00−3св119595 1.3 102090
17 апреля, сб
сб1723:00−6ююв229028 0.1 102318
02:00−8ююв338812 0.1 102325
05:00−9ююв328518 0.0 102315
08:00−6юв118721 0.0 101945
11:00−2ссв228867 0.0 1018528
14:00−2с3295100 0.1 1019437
17:00−2с229688 0.3 1019359
20:00−4с1196100 0.6 1020116
18 апреля, вс
вс1823:00−4ссз1197100 0.8 1021155
02:00−4с1199100 1.1 1020131
05:00−4с1199100 0.4 1020181
08:00−4с0195100 0.9 1021187
11:00−3с2296100 0.5 1020467
14:00−2с329696 0.7 1019575
17:00−2ссз2299100 0.7 1020153
20:00−3с11100100 1.2 1021141